Weather History for Hanford, CA

Change the Weather History Date:

Thursday, May 8, 2014

  Actual Average Record
Temperature  
Mean Temperature 65 °F 67 °F  
Max Temperature 80 °F 82 °F 100 °F (2001)
Min Temperature 50 °F 52 °F 47 °F (2008)
Degree Days  
Heating Degree Days 0    
Month to date heating degree days 5  
Since 1 July heating degree days 2047  
Cooling Degree Days 0    
Month to date cooling degree days 33  
Year to date cooling degree days 108  
Growing Degree Days 15 (Base 50)    
Moisture  
Dew Point 43 °F    
Average Humidity 50    
Maximum Humidity 77    
Minimum Humidity 23    
Precipitation  
Precipitation 0.00 in 0.02 in 0.02 in (2005)
Month to date precipitation T 0.15  
Year to date precipitation 2.43 6.34  
Since 1 July precipitation 2.82 9.68  
Snow  
Snow 0.00 in - - ()
Month to date snowfall 0.0  
Since 1 July snowfall 0.0  
Snow Depth 0.00 in    
Sea Level Pressure  
Sea Level Pressure 30.02 in    
Wind  
Wind Speed 7 mph (NNW)    
Max Wind Speed 17 mph    
Max Gust Speed 22 mph    
Visibility 10 miles    
Events      
T = Trace of Precipitation, MM = Missing Value Source: NWS Daily Summary

Daily Weather History Graph

Daily Weather History Graph

Search for Another Location

Airport:

Trip Planner

Search our weather history database for the weather conditions in past years. The results will help you decide how hot, cold, wet, or windy it might be!

Date:

Astronomy

May. 08, 2014 Rise Set
Actual Time 5:58 AM PDT 7:52 PM PDT
Civil Twilight 5:29 AM PDT 8:20 PM PDT
Nautical Twilight 4:55 AM PDT 8:54 PM PDT
Astronomical Twilight 4:19 AM PDT 9:31 PM PDT
Moon 2:07 PM PDT (5/8) 2:21 AM PDT (5/8)
Length of Visible Light 14h 50m
Length of Day
13h 54m
Waxing Gibbous, 66% of the Moon is Illuminated
May 8
Waxing Gibbous
May 14
Full
May 21
Last Quarter
May 28
New
Jun 5
First Quarter

Hourly Weather History & Observations

Time (PDT) Temp. Dew Point Humidity Pressure Visibility Wind Dir Wind Speed Gust Speed Precip Events Conditions
12:53 AM 59.0 °F 43.0 °F 55% 29.96 in 10.0 mi North - - N/A   Clear
1:53 AM 57.0 °F 44.1 °F 62% 29.97 in 10.0 mi NW 8.1 mph - N/A   Clear
2:53 AM 55.9 °F 44.1 °F 64% 29.97 in 10.0 mi NNW 6.9 mph - N/A   Clear
3:53 AM 55.9 °F 44.1 °F 64% 29.98 in 10.0 mi Calm Calm - N/A   Clear
4:53 AM 53.1 °F 46.0 °F 77% 30.00 in 10.0 mi SSE 5.8 mph - N/A   Clear
5:53 AM 51.1 °F 44.1 °F 77% 30.02 in 10.0 mi Calm Calm - N/A   Clear
6:53 AM 53.1 °F 45.0 °F 74% 30.02 in 9.0 mi Calm Calm - N/A   Clear
7:53 AM 57.9 °F 44.1 °F 60% 30.04 in 10.0 mi East 4.6 mph - N/A   Clear
8:53 AM 61.0 °F 44.1 °F 54% 30.06 in 10.0 mi Variable 3.5 mph - N/A   Clear
9:53 AM 64.9 °F 44.1 °F 47% 30.06 in 4.0 mi Variable 3.5 mph - N/A   Haze
11:53 AM 71.1 °F 43.0 °F 36% 30.07 in 10.0 mi North 8.1 mph - N/A   Clear
12:53 PM 73.0 °F 43.0 °F 34% 30.05 in 10.0 mi Variable 6.9 mph - N/A   Clear
2:53 PM 77.0 °F 39.9 °F 26% 30.02 in 10.0 mi West 8.1 mph - N/A   Clear
3:53 PM 79.0 °F 39.9 °F 25% 30.01 in 10.0 mi Variable 4.6 mph - N/A   Clear
4:53 PM 78.1 °F 37.9 °F 24% 30.00 in 10.0 mi NW 9.2 mph - N/A   Clear
5:53 PM 77.0 °F 37.9 °F 24% 29.99 in 10.0 mi NNW 5.8 mph - N/A   Clear
6:53 PM 75.9 °F 37.9 °F 25% 29.98 in 10.0 mi NNW 6.9 mph - N/A   Clear
7:53 PM 73.9 °F 37.0 °F 26% 29.99 in 10.0 mi NNW 4.6 mph - N/A   Clear
8:53 PM 70.0 °F 39.9 °F 33% 30.01 in 10.0 mi NNW 8.1 mph - N/A   Clear
9:53 PM 68.0 °F 45.0 °F 43% 30.03 in 10.0 mi NNW 12.7 mph - N/A   Clear
10:53 PM 66.9 °F 50.0 °F 54% 30.05 in 10.0 mi NW 15.0 mph - N/A   Clear
11:53 PM 64.9 °F 51.1 °F 61% 30.06 in 10.0 mi NW 12.7 mph - N/A   Clear